Date String (YYYY-MM-DD hh:mm:ss) UTC,Instrument flags,absolute air pressure of the measurement (hPa),sample flow rate (lpm),inlet stack bypass flow (lpm),air temperature of the measurement (°C),ambient temperature measured by the external sensor (°C),aerosol sample conditioner tube jacket temperature (°C),OPC LED temperature (°C),internal box temperature (°C),relative humidity of the measurement (%),span deviation,mass concentration of particles derived from Lorenz-Mie calculation of OPC scattering (μg/m³),mass concentration of particles derived from Lorenz-Mie calculation of OPC scattering (μg/m³),mass concentration of particles derived from Lorenz-Mie calculation of OPC scattering (μg/m³)
DateTimeUTC,F1_M11,P_M11,Q1_M11,Q2_M11,T1_M11,T2_M11,T3_M11,T4_M11,T5_M11,U1_M11,ZSPAN_M11,X0_M11,X2_M11,X1_M11
2023-07-18 14:00:00,SystemResetWarning,0832.5,4.99,000.00,029.2,025.9,000.0,037.6,030.5,20.6,0000.0,0010.38,0004.68,0004.14
2023-07-18 14:01:00,SystemResetWarning,0832.5,5.00,000.00,029.2,026.3,000.0,037.6,030.6,20.0,0000.0,0011.38,0004.67,0004.14
2023-07-18 14:02:00,SystemResetWarning,0832.5,5.01,000.00,029.2,026.7,000.0,037.6,030.7,20.1,0000.0,0011.79,0004.70,0004.13
2023-07-18 14:03:00,SystemResetWarning,0832.5,5.01,000.00,029.2,027.0,000.0,037.6,030.7,19.7,0000.0,0011.71,0004.68,0004.11
2023-07-18 14:04:00,SystemResetWarning,0832.5,5.00,000.00,029.2,027.3,000.0,037.7,030.8,20.3,0000.0,0011.62,0004.67,0004.11
2023-07-18 14:05:00,SystemResetWarning,0832.5,5.00,000.00,029.2,027.6,000.0,037.7,030.9,20.6,0000.0,0012.57,0004.66,0004.09
2023-07-18 14:06:00,SystemResetWarning,0832.5,4.99,000.00,029.3,027.8,000.0,037.7,030.9,21.0,0000.0,0012.70,0004.67,0004.09
2023-07-18 14:07:00,SystemResetWarning,0832.5,4.99,000.00,029.3,027.9,000.0,037.7,031.0,20.6,0000.0,0012.33,0004.70,0004.08
2023-07-18 14:08:00,SystemResetWarning,0832.5,5.00,000.00,029.3,028.1,000.0,037.7,031.0,21.2,0000.0,0012.94,0004.69,0004.06
2023-07-18 14:09:00,SystemResetWarning,0832.5,5.00,000.00,029.4,027.1,000.0,037.6,031.0,20.8,0000.0,0013.22,0004.71,0004.06
2023-07-18 14:10:00,SystemResetWarning,0832.5,5.00,000.00,029.3,025.5,000.0,037.5,030.7,20.9,0000.0,0013.44,0004.69,0004.06
2023-07-18 14:11:00,SystemResetWarning,0832.5,5.01,000.00,029.2,025.3,000.0,037.5,030.6,20.9,0000.0,0012.87,0004.68,0004.06
2023-07-18 14:12:00,SystemResetWarning,0832.5,5.01,000.00,029.2,025.7,000.0,037.5,030.5,20.9,0000.0,0012.09,0004.67,0004.05
2023-07-18 14:13:00,SystemResetWarning,0832.5,5.00,000.00,029.1,026.1,000.0,037.5,030.5,20.3,0000.0,0012.16,0004.66,0004.05
2023-07-18 14:14:00,SystemResetWarning,0832.5,4.99,000.00,029.1,026.5,000.0,037.6,030.6,21.4,0000.0,0012.21,0004.68,0004.05
2023-07-18 14:15:00,SystemResetWarning,0832.5,5.00,000.00,029.1,026.8,000.0,037.6,030.6,20.5,0000.0,0012.12,0004.70,0004.04
2023-07-18 14:16:00,SystemResetWarning,0832.5,5.00,000.00,029.1,027.2,000.0,037.6,030.7,20.7,0000.0,0011.14,0004.67,0004.04
2023-07-18 14:17:00,SystemResetWarning,0832.5,5.00,000.00,029.2,027.4,000.0,037.6,030.8,20.5,0000.0,0010.86,0004.62,0004.03
2023-07-18 14:18:00,SystemResetWarning,0832.5,4.99,000.00,029.2,027.7,000.0,037.6,030.8,20.7,0000.0,0010.72,0004.60,0004.02
2023-07-18 14:19:00,SystemResetWarning,0832.5,4.99,000.00,029.2,027.9,000.0,037.6,030.9,21.1,0000.0,0010.60,0004.59,0004.02
2023-07-18 14:20:00,SystemResetWarning,0832.5,5.01,000.00,029.3,027.9,000.0,037.6,031.0,21.2,0000.0,0010.53,0004.59,0004.01
2023-07-18 14:21:00,SystemResetWarning,0832.5,4.99,000.00,029.3,026.6,000.0,037.5,030.8,22.4,0000.0,0011.07,0004.61,0004.00
2023-07-18 14:22:00,SystemResetWarning,0832.5,5.00,000.00,029.2,025.3,000.0,037.4,030.6,21.8,0000.0,0011.15,0004.63,0003.99
2023-07-18 14:23:00,SystemResetWarning,0832.6,5.01,000.00,029.1,025.5,000.0,037.4,030.5,21.4,0000.0,0011.10,0004.60,0003.99
2023-07-18 14:24:00,SystemResetWarning,0832.5,5.01,000.00,029.1,025.9,000.0,037.4,030.4,22.0,0000.0,0010.75,0004.60,0003.99
2023-07-18 14:25:00,SystemResetWarning,0832.5,4.99,000.00,029.1,026.2,000.0,037.5,030.5,21.2,0000.0,0011.96,0004.62,0003.99
2023-07-18 14:26:00,SystemResetWarning,0832.5,5.00,000.00,029.1,026.6,000.0,037.5,030.6,20.7,0000.0,0012.71,0004.62,0003.99
2023-07-18 14:27:00,SystemResetWarning,0832.5,5.00,000.00,029.1,027.0,000.0,037.5,030.7,20.4,0000.0,0013.08,0004.64,0003.99
2023-07-18 14:28:00,SystemResetWarning,0832.6,5.00,000.00,029.1,027.3,000.0,037.5,030.7,20.5,0000.0,0013.85,0004.71,0004.01
2023-07-18 14:29:00,SystemResetWarning,0832.5,5.00,000.00,029.1,027.5,000.0,037.6,030.8,20.5,0000.0,0013.87,0004.73,0004.02
2023-07-18 14:30:00,SystemResetWarning,0832.5,5.00,000.00,029.2,027.7,000.0,037.6,030.9,20.8,0000.0,0014.01,0004.76,0004.02
2023-07-18 14:31:00,SystemResetWarning,0832.6,4.99,000.00,029.2,027.9,000.0,037.6,030.9,22.6,0000.0,0013.72,0004.75,0004.01
2023-07-18 14:32:00,SystemResetWarning,0832.6,4.99,000.00,029.2,027.0,000.0,037.5,030.8,21.0,0000.0,0013.15,0004.75,0004.01
2023-07-18 14:33:00,SystemResetWarning,0832.6,5.00,000.00,029.2,025.4,000.0,037.4,030.6,20.6,0000.0,0013.35,0004.74,0004.01
2023-07-18 14:34:00,SystemResetWarning,0832.7,5.01,000.00,029.1,025.5,000.0,037.3,030.5,21.6,0000.0,0013.09,0004.76,0004.02
2023-07-18 14:35:00,SystemResetWarning,0832.6,5.00,000.00,029.1,025.8,000.0,037.4,030.5,19.5,0000.0,0012.98,0004.78,0004.03
2023-07-18 14:36:00,SystemResetWarning,0832.6,4.99,000.00,029.0,026.2,000.0,037.4,030.5,20.5,0000.0,0012.80,0004.75,0004.03
2023-07-18 14:37:00,SystemResetWarning,0832.7,5.00,000.00,029.0,026.6,000.0,037.4,030.5,20.7,0000.0,0012.00,0004.74,0004.04
2023-07-18 14:38:00,SystemResetWarning,0832.7,5.00,000.00,029.0,026.9,000.0,037.5,030.6,20.9,0000.0,0012.14,0004.75,0004.06
2023-07-18 14:39:00,SystemResetWarning,0832.7,5.00,000.00,029.1,027.2,000.0,037.5,030.7,20.6,0000.0,0012.05,0004.73,0004.06
2023-07-18 14:40:00,SystemResetWarning,0832.7,5.01,000.00,029.1,027.5,000.0,037.5,030.8,20.9,0000.0,0012.30,0004.73,0004.07
2023-07-18 14:41:00,SystemResetWarning,0832.7,5.00,000.00,029.1,027.7,000.0,037.5,030.8,22.7,0000.0,0011.91,0004.75,0004.09
2023-07-18 14:42:00,SystemResetWarning,0832.8,4.99,000.00,029.2,027.9,000.0,037.6,030.9,29.7,0000.0,0011.74,0004.76,0004.10
2023-07-18 14:43:00,SystemResetWarning,0832.7,4.98,000.00,029.2,027.3,000.0,037.5,030.9,30.2,0000.0,0011.08,0004.73,0004.11
2023-07-18 14:44:00,SystemResetWarning,0832.8,5.01,000.00,029.2,025.8,000.0,037.4,030.7,29.4,0000.0,0010.78,0004.76,0004.13
2023-07-18 14:45:00,SystemResetWarning,0832.7,5.02,000.00,029.1,025.5,000.0,037.3,030.6,26.6,0000.0,0011.04,0004.78,0004.12
2023-07-18 14:46:00,SystemResetWarning,0832.8,5.00,000.00,029.1,025.9,000.0,037.4,030.5,27.1,0000.0,0010.88,0004.74,0004.11
2023-07-18 14:47:00,SystemResetWarning,0832.7,4.99,000.00,029.0,026.2,000.0,037.4,030.5,26.9,0000.0,0010.05,0004.73,0004.12
2023-07-18 14:48:00,SystemResetWarning,0832.8,5.00,000.00,029.0,026.6,000.0,037.4,030.5,26.2,0000.0,0009.94,0004.72,0004.12
2023-07-18 14:49:00,SystemResetWarning,0832.8,5.00,000.00,029.1,026.9,000.0,037.5,030.6,26.7,0000.0,0009.59,0004.72,0004.11
2023-07-18 14:50:00,SystemResetWarning,0832.8,5.00,000.00,029.1,027.3,000.0,037.5,030.7,27.2,0000.0,0009.09,0004.73,0004.10
2023-07-18 14:51:00,SystemResetWarning,0832.8,5.00,000.00,029.1,027.5,000.0,037.5,030.8,26.2,0000.0,0008.82,0004.72,0004.09
2023-07-18 14:52:00,SystemResetWarning,0832.8,5.00,000.00,029.2,027.8,000.0,037.5,030.9,25.2,0000.0,0008.83,0004.70,0004.08
2023-07-18 14:53:00,SystemResetWarning,0832.7,4.98,000.00,029.2,027.4,000.0,037.5,030.9,25.8,0000.0,0010.56,0004.85,0004.13
2023-07-18 14:54:00,SystemResetWarning,0832.7,5.01,000.00,029.2,025.8,000.0,037.4,030.6,26.1,0000.0,0012.19,0004.98,0004.19
2023-07-18 14:55:00,SystemResetWarning,0832.6,5.02,000.00,029.1,025.3,000.0,037.3,030.5,24.9,0000.0,0013.14,0005.09,0004.25
2023-07-18 14:56:00,SystemResetWarning,0832.7,4.99,000.00,029.0,025.6,000.0,037.3,030.4,25.6,0000.0,0014.40,0005.23,0004.30
2023-07-18 14:57:00,SystemResetWarning,0832.7,5.00,000.00,029.0,026.0,000.0,037.4,030.4,26.0,0000.0,0016.24,0005.41,0004.35
2023-07-18 14:58:00,SystemResetWarning,0832.7,5.01,000.00,029.0,026.4,000.0,037.4,030.5,25.2,0000.0,0016.80,0005.53,0004.40
2023-07-18 14:59:00,SystemResetWarning,0832.7,5.00,000.00,029.0,026.8,000.0,037.4,030.6,24.6,0000.0,0017.74,0005.65,0004.43
